User: anonymous   Login
Location: Hylvaty SDH
(49.9612°N, 16.4057°E)
Time: 18:43:28
(UTC+01:00)
Language:

COSMOS 2251 DEB - Orbit

View from above orbital plane
View from above orbital plane
View from above satellite
View from above satellite

Ground track
Ground track

The orbit data is extracted from the following two-line orbital elements,

1 35974U 93036AVQ 21022.60878233  .00000909  00000-0  22238-3 0  9991
2 35974  74.0303 154.3945 0017745 339.8437  20.2022 14.53919886627208
Epoch (UTC): 22 January 2021 14:36:38
Eccentricity: 0.0017745
inclination: 74.0303°
perigee height: 700 km
apogee height: 725 km
right ascension of ascending node: 154.3945°
argument of perigee: 339.8437°
revolutions per day: 14.53919886
mean anomaly at epoch: 20.2022°
orbit number at epoch: 62720

The dashed part of the orbit path shows where the satellite is in the earth's shadow,  

DLR